• In Hungary
  • List of Countries
  • For 7 days
  • Water Temperature
  • Satellite Maps
  • Weather Map
  • News
  • Weather Widgets
  • user-avatar
    Login

    Hourly Weather Giumri

    Today, 24 February, Saturday

    Time Temperature Precipitation Wind Pressure Humidity
    00:00 -2°C° 0 mm 1 mps 627 mmHg 79%
    01:00 -2°C° 0 mm 1 mps 627 mmHg 79%
    02:00 -3°C° 0 mm 1 mps 627 mmHg 78%
    03:00 -3°C° 0 mm 1 mps 627 mmHg 76%
    04:00 -3°C° 0 mm 1 mps 627 mmHg 76%
    05:00 -3°C° 0 mm 1 mps 627 mmHg 76%
    06:00 -3°C° 0 mm 1 mps 626 mmHg 76%
    07:00 -2°C° 0 mm 1 mps 627 mmHg 76%
    08:00 -1°C° 0 mm 1 mps 627 mmHg 75%
    09:00 0°C° 0 mm 1 mps 627 mmHg 74%
    10:00 +2°C° 0 mm 1 mps 627 mmHg 73%
    11:00 +3°C° 0 mm 1 mps 627 mmHg 71%
    12:00 +4°C° 0 mm 1 mps 627 mmHg 69%
    13:00 +4°C° 0 mm 1 mps 627 mmHg 69%
    14:00 +4°C° 0 mm 1 mps 627 mmHg 69%
    15:00 +5°C° 0 mm 1 mps 627 mmHg 68%
    16:00 +3°C° 0 mm 1 mps 626 mmHg 70%
    17:00 +1°C° 0 mm 1 mps 626 mmHg 72%
    18:00 -2°C° 0 mm 0 mps 625 mmHg 74%
    19:00 -2°C° 0 mm 0 mps 625 mmHg 74%
    20:00 -2°C° 0 mm 1 mps 626 mmHg 74%
    21:00 -2°C° 0 mm 1 mps 626 mmHg 74%
    22:00 -3°C° 0 mm 1 mps 626 mmHg 74%
    23:00 -3°C° 0 mm 1 mps 626 mmHg 74%

    Tomorrow, 25 February, Sunday

    Time Temperature Precipitation Wind Pressure Humidity
    00:00 -3°C° 0 mm 1 mps 626 mmHg 73%
    01:00 -3°C° 0 mm 1 mps 626 mmHg 74%
    02:00 -3°C° 0 mm 1 mps 626 mmHg 74%
    03:00 -4°C° 0 mm 1 mps 626 mmHg 74%
    04:00 -4°C° 0 mm 1 mps 626 mmHg 76%
    05:00 -4°C° 0 mm 1 mps 626 mmHg 77%
    06:00 -4°C° 0 mm 1 mps 625 mmHg 79%
    07:00 -3°C° 0 mm 1 mps 626 mmHg 79%
    08:00 -4°C° 0 mm 2 mps 626 mmHg 78%
    09:00 -3°C° 0 mm 2 mps 626 mmHg 78%
    10:00 -1°C° 0 mm 2 mps 626 mmHg 76%
    11:00 0°C° 0 mm 3 mps 626 mmHg 75%
    12:00 +1°C° 0 mm 3 mps 626 mmHg 73%
    13:00 +2°C° 0 mm 3 mps 626 mmHg 73%
    14:00 +1°C° 0 mm 4 mps 625 mmHg 72%
    15:00 +3°C° 0 mm 4 mps 625 mmHg 72%
    16:00 +2°C° 0 mm 3 mps 625 mmHg 74%
    17:00 +1°C° 0 mm 3 mps 625 mmHg 76%
    18:00 0°C° 0 mm 3 mps 625 mmHg 78%
    19:00 -1°C° 0.1 mm 3 mps 625 mmHg 79%
    20:00 -1°C° 0.1 mm 2 mps 625 mmHg 80%
    21:00 -2°C° 0.1 mm 2 mps 625 mmHg 80%
    22:00 -1°C° 0.2 mm 2 mps 625 mmHg 81%
    23:00 -1°C° 0.2 mm 2 mps 625 mmHg 82%

    Day after tomorrow, 26 February, Monday

    Time Temperature Precipitation Wind Pressure Humidity
    00:00 -1°C° 0.2 mm 2 mps 625 mmHg 83%
    01:00 -1°C° 0.5 mm 2 mps 625 mmHg 85%
    02:00 -1°C° 0.5 mm 2 mps 625 mmHg 86%
    03:00 -1°C° 0.5 mm 2 mps 625 mmHg 87%
    04:00 -1°C° 0.2 mm 2 mps 625 mmHg 88%
    05:00 -2°C° 0.2 mm 2 mps 625 mmHg 88%
    06:00 -2°C° 0.2 mm 2 mps 625 mmHg 89%
    07:00 -1°C° 0.3 mm 2 mps 626 mmHg 88%
    08:00 -1°C° 0.3 mm 2 mps 626 mmHg 87%
    09:00 +2°C° 0.3 mm 1 mps 627 mmHg 86%
    10:00 +2°C° 0.5 mm 1 mps 627 mmHg 86%
    11:00 +3°C° 0.5 mm 1 mps 627 mmHg 85%
    12:00 +3°C° 0.5 mm 1 mps 627 mmHg 84%
    13:00 +3°C° 0.3 mm 1 mps 627 mmHg 82%
    14:00 +4°C° 0.3 mm 1 mps 626 mmHg 81%
    15:00 +4°C° 0.3 mm 1 mps 626 mmHg 79%
    16:00 +3°C° 0.1 mm 1 mps 626 mmHg 81%
    17:00 +2°C° 0.1 mm 1 mps 626 mmHg 82%
    18:00 +1°C° 0.1 mm 1 mps 626 mmHg 84%
    19:00 +1°C° 0.1 mm 1 mps 626 mmHg 85%
    20:00 0°C° 0.1 mm 1 mps 626 mmHg 85%
    21:00 0°C° 0.1 mm 1 mps 626 mmHg 85%
    22:00 0°C° 0 mm 1 mps 627 mmHg 85%
    23:00 -1°C° 0 mm 1 mps 627 mmHg 84%

    27 February, Tuesday

    Time Temperature Precipitation Wind Pressure Humidity
    00:00 -1°C° 0 mm 1 mps 627 mmHg 84%
    01:00 -1°C° 0 mm 1 mps 627 mmHg 84%
    02:00 -1°C° 0 mm 1 mps 627 mmHg 84%
    03:00 -1°C° 0 mm 1 mps 627 mmHg 84%
    04:00 -1°C° 0 mm 1 mps 627 mmHg 84%
    05:00 -1°C° 0 mm 1 mps 627 mmHg 84%
    06:00 -2°C° 0 mm 1 mps 627 mmHg 85%
    07:00 -1°C° 0.1 mm 1 mps 627 mmHg 83%
    08:00 0°C° 0.1 mm 1 mps 628 mmHg 82%
    09:00 -1°C° 0.1 mm 2 mps 628 mmHg 81%
    10:00 +1°C° 0.1 mm 2 mps 628 mmHg 79%
    11:00 +1°C° 0.1 mm 3 mps 628 mmHg 77%
    12:00 +2°C° 0.1 mm 3 mps 628 mmHg 76%
    13:00 +3°C° 0.1 mm 3 mps 628 mmHg 75%
    14:00 +3°C° 0.1 mm 3 mps 628 mmHg 74%
    15:00 +3°C° 0.1 mm 3 mps 628 mmHg 74%
    16:00 +2°C° 0.1 mm 3 mps 628 mmHg 76%
    17:00 +2°C° 0.1 mm 2 mps 628 mmHg 78%
    18:00 +2°C° 0.1 mm 2 mps 629 mmHg 81%
    19:00 +1°C° 0.1 mm 2 mps 629 mmHg 82%
    20:00 +1°C° 0.1 mm 2 mps 629 mmHg 82%
    21:00 +1°C° 0.1 mm 1 mps 630 mmHg 83%
    22:00 +1°C° 0.1 mm 1 mps 630 mmHg 84%
    23:00 +1°C° 0.1 mm 1 mps 629 mmHg 84%

    28 February, Wednesday

    Time Temperature Precipitation Wind Pressure Humidity
    00:00 +1°C° 0.1 mm 1 mps 629 mmHg 85%
    01:00 +1°C° 0.1 mm 1 mps 629 mmHg 85%
    02:00 0°C° 0.1 mm 1 mps 629 mmHg 85%
    03:00 0°C° 0.1 mm 1 mps 629 mmHg 86%
    04:00 0°C° 0.1 mm 1 mps 630 mmHg 86%
    05:00 0°C° 0.1 mm 1 mps 630 mmHg 86%
    06:00 0°C° 0.1 mm 1 mps 630 mmHg 87%
    07:00 +1°C° 0.1 mm 1 mps 630 mmHg 85%
    08:00 +2°C° 0.1 mm 1 mps 631 mmHg 83%
    09:00 +3°C° 0.1 mm 1 mps 631 mmHg 82%
    10:00 +4°C° 0 mm 1 mps 631 mmHg 80%
    11:00 +4°C° 0 mm 2 mps 631 mmHg 79%
    12:00 +4°C° 0 mm 2 mps 631 mmHg 78%
    13:00 +6°C° 0 mm 1 mps 631 mmHg 76%
    14:00 +6°C° 0 mm 1 mps 631 mmHg 75%
    15:00 +6°C° 0 mm 1 mps 631 mmHg 73%
    16:00 +5°C° 0 mm 1 mps 630 mmHg 74%
    17:00 +4°C° 0 mm 1 mps 630 mmHg 75%
    18:00 +2°C° 0 mm 1 mps 630 mmHg 76%
    19:00 +2°C° 0 mm 1 mps 630 mmHg 77%
    20:00 +1°C° 0 mm 1 mps 630 mmHg 77%
    21:00 +1°C° 0 mm 1 mps 630 mmHg 78%
    22:00 0°C° 0 mm 1 mps 630 mmHg 78%
    23:00 0°C° 0 mm 1 mps 630 mmHg 79%

    1 March, Thursday

    Time Temperature Precipitation Wind Pressure Humidity
    00:00 0°C° 0 mm 1 mps 630 mmHg 80%
    01:00 0°C° 0 mm 1 mps 630 mmHg 80%
    02:00 -1°C° 0 mm 1 mps 630 mmHg 81%
    03:00 -1°C° 0 mm 1 mps 630 mmHg 81%
    04:00 -1°C° 0 mm 1 mps 629 mmHg 82%
    05:00 -1°C° 0 mm 1 mps 629 mmHg 82%
    06:00 -1°C° 0 mm 1 mps 629 mmHg 82%
    07:00 0°C° 0 mm 1 mps 630 mmHg 81%
    08:00 +1°C° 0 mm 1 mps 630 mmHg 80%
    09:00 +2°C° 0 mm 1 mps 630 mmHg 78%
    10:00 +2°C° 0 mm 2 mps 630 mmHg 76%
    11:00 +3°C° 0 mm 2 mps 630 mmHg 73%
    12:00 +4°C° 0 mm 2 mps 630 mmHg 70%
    13:00 +5°C° 0 mm 2 mps 630 mmHg 69%
    14:00 +5°C° 0 mm 2 mps 630 mmHg 68%
    15:00 +6°C° 0 mm 1 mps 630 mmHg 67%
    16:00 +5°C° 0 mm 1 mps 629 mmHg 70%
    17:00 +4°C° 0 mm 1 mps 629 mmHg 72%
    18:00 +3°C° 0 mm 1 mps 629 mmHg 74%
    19:00 +3°C° 0.1 mm 1 mps 629 mmHg 76%
    20:00 +2°C° 0.1 mm 1 mps 630 mmHg 78%
    21:00 +2°C° 0.1 mm 1 mps 630 mmHg 79%
    22:00 +2°C° 0.3 mm 1 mps 630 mmHg 81%
    23:00 +2°C° 0.3 mm 1 mps 630 mmHg 83%
    Show more